Theta_e
311 312 313 314 314 315 316 318 317 316 317 317 315 314 312 308 303 301 301 304 306 310 310 313 312 308 311 313 313 313 309 309 311 309 311 311 310 312 313 314 314 315 314 314 314
306 309 311 312 312 313 314 315 320 318 317 316 316 315 316 315 310 304 304 303 303 308 313 312 309 309 313 313 313 310 308 309 308 307 310 311 311 312 312 312 313 314 314 314 314
304 305 304 308 309 310 312 313 316 318 317 316 317 316 316 316 310 305 305 304 302 308 314 313 310 311 311 311 312 309 309 307 310 310 311 311 311 312 310 309 312 313 314 314 314
305 304 304 305 308 308 308 310 314 316 315 315 315 316 316 315 305 309 308 304 303 309 312 310 311 311 309 309 312 310 309 308 310 312 310 309 310 310 311 313 313 313 313 313 313
306 305 304 304 305 307 307 308 311 313 312 315 314 314 316 315 314 309 306 307 303 309 310 309 310 310 308 308 310 309 309 310 310 311 311 310 309 309 309 312 312 312 312 312 312
307 306 304 304 304 304 305 305 307 310 311 311 312 312 313 312 316 314 305 305 308 310 312 311 310 310 310 309 309 310 310 310 310 310 310 310 309 310 311 312 312 312 311 311 312
306 306 305 304 305 304 303 303 305 306 308 309 310 310 312 315 314 313 307 308 309 311 311 310 311 310 311 309 310 310 311 309 308 310 309 310 308 308 311 312 312 311 311 311 310
305 306 306 305 303 304 303 302 304 306 308 307 308 309 311 312 314 314 310 310 308 309 309 310 310 310 310 310 309 309 308 309 308 307 310 309 309 309 310 310 311 312 312 311 312
303 304 306 305 303 303 303 302 302 303 305 306 306 307 309 311 311 311 313 313 309 308 309 309 309 310 310 308 308 305 307 307 308 307 309 306 308 308 310 309 309 311 311 311 312
301 301 304 307 303 303 303 302 301 301 302 303 304 307 308 311 310 311 311 315 309 308 309 309 309 307 305 306 309 308 307 307 307 308 308 307 305 307 309 309 310 312 313 313 312
300 301 302 303 304 303 303 302 301 300 301 303 304 307 308 309 310 311 312 314 310 309 307 308 307 309 307 307 307 307 307 308 307 308 309 308 307 308 309 309 310 312 314 315 316
300 300 300 301 304 303 303 302 301 302 303 302 304 306 307 310 309 309 311 311 307 306 305 307 309 306 306 306 306 307 308 308 309 309 309 308 308 307 307 307 311 312 313 315 316
300 300 300 302 301 304 304 302 301 300 303 303 305 304 307 308 310 308 309 310 307 306 306 307 307 305 307 306 308 306 307 308 309 309 308 308 307 308 308 308 310 312 314 315 316
299 300 300 300 303 302 303 302 300 299 302 303 305 305 307 309 308 310 309 311 308 308 305 306 305 306 306 308 307 309 306 308 309 309 308 307 310 307 308 308 308 311 313 315 315
298 299 299 298 303 302 302 301 299 299 302 300 305 306 307 309 308 309 309 310 310 308 307 307 305 306 307 307 307 308 305 306 307 307 308 307 308 306 306 308 308 307 312 312 313
299 299 298 301 302 301 300 298 298 300 300 299 306 307 307 308 307 307 309 309 310 308 308 307 306 305 306 305 306 305 306 305 304 306 309 306 308 308 308 310 310 309 310 310 310
300 300 298 303 299 297 297 297 300 300 299 302 307 306 306 307 307 307 309 309 310 311 312 309 308 306 306 307 306 307 308 309 308 306 310 305 308 311 308 306 306 307 308 310 310
299 299 299 302 298 297 298 298 299 293 298 301 305 306 306 305 307 307 309 310 308 308 309 310 311 306 306 307 307 308 310 310 312 311 310 304 309 309 305 305 304 304 307 309 310
300 300 299 298 297 297 298 299 295 295 300 302 305 306 307 306 305 306 308 310 309 307 310 310 310 305 305 306 308 308 310 308 309 299 309 306 305 305 305 304 303 303 305 308 309
301 300 299 298 297 296 297 298 294 299 302 303 305 305 306 307 305 306 306 307 309 308 306 308 310 306 306 307 307 308 308 310 311 313 312 310 309 310 309 306 305 305 304 306 308
300 297 297 297 296 297 297 295 296 299 302 302 302 300 304 304 305 306 305 306 308 308 306 306 308 307 306 308 309 307 309 308 310 310 314 312 310 304 308 304 304 304 305 307 308
296 295 296 295 294 295 297 295 299 300 301 302 303 302 303 304 306 306 306 306 306 307 308 306 306 306 308 306 305 308 309 310 313 311 307 310 309 301 302 303 304 306 308 308 308
295 295 296 294 295 292 293 296 297 299 299 301 302 302 302 303 304 305 306 304 305 306 307 307 308 307 305 306 304 306 306 307 307 306 309 311 309 301 302 303 304 306 307 308 309
294 294 294 295 294 291 293 294 294 298 300 297 300 301 303 304 301 303 305 304 304 306 307 308 305 308 308 307 307 308 307 306 309 312 310 309 308 303 303 302 302 305 307 308 308
293 289 291 292 292 290 291 293 294 296 299 300 297 300 301 302 303 303 302 304 305 307 308 308 308 304 306 307 306 308 308 306 307 310 311 310 306 305 303 302 302 306 306 307 308
290 290 289 287 293 293 291 291 296 297 297 297 297 294 301 302 302 303 304 303 305 306 305 306 301 300 307 306 304 307 307 307 307 308 307 306 306 304 305 304 304 305 307 308 310
292 292 293 292 290 292 290 293 296 296 296 297 299 299 301 301 300 301 301 302 303 305 307 307 302 304 309 304 307 308 305 306 307 306 308 308 308 304 305 301 305 305 307 308 309
Wind_Speed
25 21 25 27 24 22 20 19 19 20 15 15 13 11 12 12 14 17 21 16 20 10 16 18 16 16 17 11 7 6 3 4 5 7 5 7 5 5 3 4 7 8 9 6 4
22 25 22 28 30 26 22 24 18 17 15 16 17 14 14 16 18 24 17 14 18 21 18 23 19 18 9 7 7 5 4 9 6 6 5 4 5 6 3 4 6 12 16 14 11
25 24 24 23 23 29 28 24 21 20 18 17 16 17 17 17 19 11 10 21 20 20 16 19 18 19 8 8 9 6 6 5 5 8 5 5 4 6 6 5 14 13 15 18 17
24 21 24 23 24 24 27 29 23 19 21 20 20 15 16 15 6 2 6 15 22 21 19 19 21 12 7 6 9 4 9 5 2 7 5 3 3 4 14 12 7 7 11 12 19
26 23 20 22 24 26 24 27 25 25 27 21 18 19 15 12 20 14 9 11 21 24 25 23 23 12 7 7 7 4 4 8 12 4 7 5 8 8 14 18 17 20 19 18 19
27 27 22 24 23 25 29 27 32 24 30 27 25 22 21 10 21 15 9 10 19 24 24 26 15 15 8 6 7 7 10 2 4 8 8 4 4 2 3 8 11 16 22 22 20
31 29 27 26 25 25 22 23 26 31 27 33 26 25 28 27 15 13 11 9 17 22 23 25 16 17 6 2 9 4 2 2 6 6 4 5 7 13 25 27 24 23 17 18 21
30 34 30 28 28 26 23 19 25 24 19 30 27 29 26 26 28 34 17 15 15 21 23 21 23 15 5 3 4 4 3 2 3 8 4 9 10 4 2 10 15 13 17 20 19
37 31 33 31 28 27 25 21 21 28 27 21 22 24 18 14 34 33 27 24 17 18 18 10 21 7 7 6 2 5 4 6 6 10 4 6 6 4 5 7 12 13 12 13 18
32 37 33 30 28 28 26 22 19 20 22 21 24 11 24 18 28 21 31 21 12 15 12 10 9 5 2 5 8 6 5 4 5 4 4 4 9 15 12 9 16 21 21 20 20
32 30 30 32 30 29 25 18 11 9 24 16 14 18 7 23 3 25 21 27 20 18 8 10 6 19 13 11 7 5 4 5 4 4 4 8 8 15 8 12 23 31 31 29 29
33 31 31 29 30 31 29 29 20 5 9 32 32 27 26 3 10 20 18 21 12 6 6 3 17 7 10 7 6 5 5 4 3 2 4 5 10 11 11 9 24 30 31 32 32
33 34 31 28 31 33 37 35 23 20 6 14 31 38 25 29 8 17 27 22 8 9 15 12 2 11 12 6 10 5 7 4 3 1 3 5 8 7 10 8 24 33 36 37 37
33 33 33 29 29 39 38 30 21 18 5 5 10 18 28 15 8 25 31 21 6 17 9 9 4 12 7 14 13 15 7 6 4 3 5 1 8 5 6 7 6 20 27 33 33
33 33 34 30 30 36 28 25 20 8 5 6 9 7 26 22 13 19 29 25 11 9 7 9 9 9 8 8 13 9 9 10 4 2 3 3 3 6 3 6 10 11 28 23 21
34 32 28 27 39 36 25 18 20 5 8 3 7 13 16 17 8 9 21 16 9 6 3 7 5 9 11 6 14 8 8 6 4 4 7 8 6 5 6 7 7 1 3 11 12
34 32 30 34 36 26 26 28 6 7 1 5 6 15 20 15 16 8 15 19 10 8 9 1 5 4 5 7 4 4 9 1 1 0 8 2 7 12 6 10 6 6 13 17 13
33 32 29 42 36 28 36 9 5 8 9 3 5 12 18 6 15 7 18 18 14 5 6 10 6 9 6 7 10 13 12 6 8 5 4 0 8 6 6 7 10 9 8 7 7
35 31 30 34 36 34 23 8 9 6 9 6 4 10 9 10 9 9 16 26 23 19 11 13 11 2 7 5 15 7 14 9 5 2 3 5 7 9 6 7 5 7 5 4 4
40 34 32 41 35 32 5 9 5 2 2 2 10 8 9 13 7 19 14 14 13 19 3 6 4 4 3 5 1 12 11 6 2 5 4 5 4 4 3 5 2 2 3 2 1
38 16 33 38 31 17 7 7 5 1 1 2 2 4 8 8 7 17 11 5 26 20 12 7 4 1 6 9 13 4 9 2 4 5 6 2 5 6 5 3 6 2 4 4 3
23 4 36 35 4 2 5 6 3 3 3 2 3 2 6 9 13 12 12 20 19 14 20 9 5 4 8 2 3 4 9 20 8 6 3 1 5 3 3 6 4 3 6 6 7
14 13 30 31 7 4 1 4 3 4 4 5 3 3 2 5 4 12 4 5 3 16 16 12 5 4 3 4 3 5 3 4 5 3 7 6 6 1 4 4 3 2 2 3 3
10 5 7 12 2 6 4 2 5 4 2 2 3 2 2 4 3 5 10 5 10 13 14 16 3 18 14 17 5 7 11 10 17 12 11 10 5 5 6 6 5 6 3 2 1
7 3 7 7 8 4 3 7 6 5 4 5 2 7 3 3 3 4 4 3 4 6 12 9 16 4 7 3 9 13 12 10 9 17 13 14 8 8 10 10 10 11 6 4 3
10 8 8 1 20 7 2 6 9 5 7 6 6 4 6 5 8 4 3 4 7 6 8 5 4 5 3 2 5 4 12 13 15 15 7 5 6 6 3 13 10 13 8 4 4
17 23 15 5 5 7 5 6 7 9 4 3 3 4 6 6 5 11 7 4 1 7 9 11 5 5 20 5 5 2 10 13 11 6 15 9 11 5 4 8 13 15 7 6 7
Wind_Direction
259 273 267 264 271 278 276 272 275 279 289 295 298 303 302 293 280 265 249 241 227 227 206 204 196 190 181 192 189 162 86 210 225 163 241 168 188 192 211 211 204 204 222 234 235
300 260 268 266 264 261 264 268 266 262 272 283 292 297 304 305 297 267 252 242 224 215 209 200 189 179 179 191 190 158 165 214 209 195 210 192 191 183 178 223 244 236 236 235 229
293 293 267 262 270 263 254 262 264 264 268 275 276 287 300 309 311 271 247 225 212 204 206 208 196 177 191 178 194 186 211 213 244 228 189 184 215 197 190 219 226 226 247 231 225
282 298 284 265 263 267 261 250 253 254 262 263 264 276 286 298 263 325 289 215 201 196 191 189 184 177 170 192 193 188 232 202 248 206 186 197 204 232 212 236 248 258 255 242 230
273 278 287 278 266 264 262 257 255 258 247 254 261 271 281 264 256 287 294 206 199 195 195 194 188 187 180 196 157 212 224 213 231 227 231 251 244 252 254 251 257 262 262 259 247
265 270 269 276 281 269 265 258 255 263 256 251 260 259 272 240 255 265 255 210 201 199 198 199 209 194 202 202 181 220 213 229 224 228 234 230 270 288 252 231 244 253 256 252 248
264 263 266 266 265 268 269 269 253 256 263 252 257 267 258 247 255 253 218 217 216 208 208 208 207 193 194 181 220 178 169 247 228 214 243 200 284 239 257 259 260 266 264 250 247
272 266 260 262 265 264 269 268 254 246 255 253 254 255 265 253 254 250 237 241 230 220 219 222 214 220 212 163 47 139 70 163 244 151 219 163 259 262 244 240 259 268 262 253 251
270 266 259 257 262 258 259 265 256 253 259 263 262 245 264 244 245 241 240 245 236 220 215 217 206 200 159 120 35 355 184 210 289 197 144 181 261 255 238 237 269 270 275 267 258
273 267 262 251 252 253 252 252 260 258 257 255 248 265 243 228 240 233 227 226 206 201 192 197 187 170 120 148 199 188 213 219 218 210 189 204 255 272 247 266 276 284 281 275 264
266 266 259 260 242 243 240 223 233 264 233 202 202 206 258 229 219 228 225 203 207 183 177 193 182 206 188 195 184 171 183 196 230 197 169 230 250 261 266 282 282 279 277 275 269
263 263 264 260 245 234 222 214 223 211 268 233 225 234 227 194 212 223 209 180 180 176 136 146 228 181 164 191 158 154 173 215 297 142 176 294 265 258 269 244 258 265 271 271 274
268 255 259 252 242 233 211 221 216 231 260 235 233 229 221 228 239 211 190 188 168 171 194 201 211 164 176 164 180 185 174 174 201 73 234 312 276 233 258 223 255 260 261 265 265
265 255 252 254 247 235 207 206 209 227 267 228 202 215 207 201 243 223 200 185 190 199 160 235 188 172 177 205 182 214 160 172 166 127 239 53 284 288 256 267 237 259 255 254 261
268 260 247 250 231 200 197 191 197 185 254 214 178 207 189 181 149 203 201 195 182 160 157 218 160 154 196 188 178 212 166 192 156 148 9 188 304 275 322 293 260 253 264 278 282
266 256 242 229 221 200 197 186 181 200 230 272 156 178 163 195 189 143 175 195 194 169 213 202 195 173 187 154 175 134 94 61 55 100 256 177 183 221 183 215 258 164 243 316 297
260 248 232 218 190 167 165 153 190 209 132 206 192 188 186 188 194 175 170 191 177 165 198 129 188 187 152 110 128 130 135 86 360 190 241 289 193 252 275 266 237 275 293 304 304
251 239 231 213 177 171 161 167 187 203 224 183 171 200 196 170 202 173 172 188 205 170 159 181 204 164 180 176 164 183 178 171 188 193 208 154 229 242 215 275 275 280 283 283 292
232 223 221 197 175 180 171 177 198 188 206 175 162 190 208 193 194 177 192 197 196 188 180 187 225 155 173 163 155 204 201 177 105 53 112 208 282 289 256 265 275 293 288 287 289
210 204 202 180 179 167 180 217 200 214 2 125 197 176 191 194 178 190 187 201 206 204 197 204 190 206 166 110 314 184 169 169 198 168 238 251 264 236 257 233 285 295 279 265 332
186 143 173 165 167 146 201 217 195 150 134 284 233 216 198 179 201 201 200 214 199 198 189 171 155 178 136 200 179 151 188 132 148 161 205 213 252 223 241 200 141 81 88 92 89
155 134 155 164 125 183 208 164 128 120 177 276 302 255 226 208 197 208 225 217 208 176 194 187 135 153 199 350 350 203 185 199 199 206 220 109 259 320 165 121 114 85 64 68 70
126 109 153 171 162 171 62 135 109 153 213 198 250 224 312 244 217 202 187 225 243 188 187 181 186 137 25 351 2 214 194 187 170 109 193 178 246 89 137 142 154 163 80 58 77
131 122 105 178 105 133 130 137 145 190 245 199 204 257 201 270 261 249 206 212 195 210 208 171 156 208 210 215 139 185 196 191 194 212 211 213 185 204 210 206 201 209 217 234 233
115 129 145 185 181 133 131 159 154 163 220 192 261 214 189 297 253 221 257 157 249 216 205 182 214 178 211 176 183 197 202 188 192 216 213 229 191 213 206 198 206 203 221 244 242
120 130 97 80 151 133 183 194 176 171 184 219 221 228 182 228 219 259 258 198 197 201 184 184 236 115 200 18 120 173 207 192 205 219 220 137 237 216 202 189 197 201 215 247 301
120 128 126 134 116 135 195 172 176 141 205 228 238 210 204 215 214 205 174 307 304 178 193 173 140 157 218 143 85 270 207 191 210 209 205 198 219 177 190 204 198 194 224 251 272